Weather History for Joplin, MO

Change the Weather History Date:

Wednesday, April 10, 2013

  Actual Average Record
Temperature  
Mean Temperature 53 °F 57 °F  
Max Temperature 70 °F 68 °F 84 °F (2011)
Min Temperature 35 °F 45 °F 27 °F (1989)
Degree Days  
Heating Degree Days 12 9  
Month to date heating degree days 107 106  
Since 1 July heating degree days 3880 3868  
Cooling Degree Days 0 1  
Month to date cooling degree days 11 10  
Year to date cooling degree days 12 20  
Growing Degree Days 2 (Base 50)    
Moisture  
Dew Point 42 °F    
Average Humidity 87    
Maximum Humidity 100    
Minimum Humidity 73    
Precipitation  
Precipitation 0.94 in 0.13 in 1.59 in (1978)
Month to date precipitation 1.08 1.24  
Year to date precipitation 8.93 9.01  
Snow  
Snow 0.00 in - - ()
Month to date snowfall T  
Snow Depth 0.00 in    
Sea Level Pressure  
Sea Level Pressure 29.84 in    
Wind  
Wind Speed 10 mph (WNW)    
Max Wind Speed 25 mph    
Max Gust Speed 30 mph    
Visibility 7 miles    
Events Rain , Thunderstorm    
T = Trace of Precipitation, MM = Missing Value Source: NWS Daily Summary

Daily Weather History Graph

Daily Weather History Graph

Search for Another Location

Airport:

Trip Planner

Search our weather history database for the weather conditions in past years. The results will help you decide how hot, cold, wet, or windy it might be!

Date:

Astronomy

Apr. 10, 2013 Rise Set
Actual Time 6:50 AM CDT 7:48 PM CDT
Civil Twilight 6:23 AM CDT 8:15 PM CDT
Nautical Twilight 5:52 AM CDT 8:47 PM CDT
Astronomical Twilight 5:19 AM CDT 9:19 PM CDT
Moon 6:47 AM CDT (4/10) 8:23 PM CDT (4/10)
Length of Visible Light 13h 51m
Length of Day
12h 58m
New Moon, 0% of the Moon is Illuminated
Apr 10
New Moon
Apr 18
First Quarter
Apr 25
Full
May 2
Last Quarter
May 9
New

Hourly Weather History & Observations

Time (CDT) Temp. Windchill Dew Point Humidity Pressure Visibility Wind Dir Wind Speed Gust Speed Precip Events Conditions
12:53 AM 66.9 °F - 57.0 °F 70% 29.70 in 10.0 mi SSE 5.8 mph - N/A   Partly Cloudy
1:42 AM 55.4 °F - 51.8 °F 88% 29.77 in 10.0 mi WNW 19.6 mph 27.6 mph N/A   Overcast
1:53 AM 55.0 °F - 51.1 °F 86% 29.76 in 10.0 mi WNW 17.3 mph 25.3 mph N/A   Overcast
2:05 AM 53.6 °F - 50.0 °F 88% 29.80 in 10.0 mi WNW 15.0 mph 24.2 mph N/A   Overcast
2:53 AM 53.1 °F - 50.0 °F 89% 29.75 in 10.0 mi North 6.9 mph - N/A   Overcast
3:20 AM 51.8 °F - 48.2 °F 88% 29.77 in 10.0 mi North 8.1 mph - N/A   Overcast
3:43 AM 51.8 °F - 48.2 °F 88% 29.79 in 10.0 mi WNW 4.6 mph - N/A   Overcast
3:53 AM 52.0 °F - 48.9 °F 89% 29.79 in 10.0 mi West 8.1 mph - N/A   Overcast
4:53 AM 48.9 °F - 46.9 °F 93% 29.81 in 10.0 mi NW 10.4 mph - 0.01 in   Overcast
5:53 AM 48.0 °F - 46.9 °F 96% 29.83 in 10.0 mi WNW 4.6 mph - 0.00 in   Overcast
6:13 AM 48.2 °F - 46.4 °F 93% 29.83 in 10.0 mi WNW 12.7 mph - 0.00 in Rain Light Rain
6:41 AM 46.4 °F 40.7 °F 44.6 °F 93% 29.85 in 10.0 mi NW 12.7 mph - 0.00 in Rain , Thunderstorm Light Rain
6:53 AM 46.0 °F 41.4 °F 44.1 °F 93% 29.87 in 10.0 mi WSW 9.2 mph - 0.00 in   Overcast
7:53 AM 44.1 °F 40.8 °F 43.0 °F 96% 29.83 in 10.0 mi WNW 5.8 mph - 0.06 in   Overcast
8:10 AM 44.6 °F 38.4 °F 42.8 °F 93% 29.88 in 8.0 mi West 12.7 mph - 0.01 in Rain , Thunderstorm Light Rain
8:53 AM 42.1 °F 38.4 °F 41.0 °F 96% 29.83 in 2.0 mi NE 5.8 mph - 0.15 in Rain , Thunderstorm Light Thunderstorms and Rain
9:01 AM 42.8 °F 38.6 °F 42.8 °F 100% 29.83 in 3.0 mi NE 6.9 mph - N/A Rain Light Rain
9:17 AM 42.8 °F 34.3 °F 41.0 °F 93% 29.93 in 5.0 mi West 19.6 mph 28.8 mph N/A Rain , Thunderstorm Light Rain
9:28 AM 42.8 °F 35.4 °F 41.0 °F 93% 29.93 in 2.0 mi West 15.0 mph 26.5 mph N/A Rain , Thunderstorm Light Thunderstorms and Rain
9:39 AM 41.0 °F 33.9 °F 39.2 °F 93% 29.89 in 1.0 mi NW 12.7 mph 19.6 mph N/A Rain , Thunderstorm Light Thunderstorms and Rain
9:45 AM 41.0 °F 35.2 °F 39.2 °F 93% 29.89 in 2.0 mi NNW 9.2 mph - N/A Rain , Thunderstorm Light Rain
9:50 AM 41.0 °F 36.4 °F 39.2 °F 93% 29.88 in 4.0 mi North 6.9 mph - N/A Rain , Thunderstorm Light Rain
9:53 AM 41.0 °F 34.3 °F 39.9 °F 96% 29.85 in 4.0 mi North 11.5 mph - N/A Rain Rain
10:05 AM 41.0 °F 33.9 °F 39.2 °F 93% 29.82 in 4.0 mi East 12.7 mph - 0.02 in Rain , Thunderstorm Rain
10:24 AM 42.8 °F 35.4 °F 41.0 °F 93% 29.88 in 8.0 mi West 15.0 mph 20.7 mph 0.05 in Rain Light Rain
10:53 AM 42.1 °F 36.1 °F 41.0 °F 96% 29.86 in 10.0 mi NW 10.4 mph - 0.05 in   Overcast
11:53 AM 42.8 °F 38.6 °F 41.0 °F 93% 29.87 in 10.0 mi NW 6.9 mph - N/A Rain Light Rain
12:53 PM 42.1 °F 36.1 °F 41.0 °F 96% 29.83 in 10.0 mi NW 10.4 mph - 0.00 in Rain Light Rain
1:53 PM 42.1 °F 35.2 °F 41.0 °F 96% 29.87 in 8.0 mi WNW 12.7 mph - 0.01 in Rain , Thunderstorm Light Thunderstorms and Rain
2:01 PM 41.0 °F 33.1 °F 39.2 °F 93% 29.85 in 1.8 mi West 15.0 mph - 0.07 in Rain , Thunderstorm Heavy Thunderstorms and Rain
2:53 PM 41.0 °F 33.9 °F 39.0 °F 93% 29.88 in 7.0 mi West 12.7 mph - 0.22 in Rain , Thunderstorm Light Thunderstorms and Rain
3:53 PM 39.9 °F 30.8 °F 39.0 °F 97% 29.89 in 9.0 mi West 18.4 mph 21.9 mph 0.03 in Rain , Thunderstorm Light Thunderstorms and Rain
4:04 PM 39.2 °F 34.2 °F 39.2 °F 100% 29.82 in 1.8 mi WNW 6.9 mph - 0.05 in Rain , Thunderstorm Heavy Thunderstorms and Rain
4:10 PM 39.2 °F 32.0 °F 39.2 °F 100% 29.80 in 3.0 mi NW 11.5 mph - 0.06 in Rain , Thunderstorm Thunderstorms and Rain
4:32 PM 39.2 °F 31.6 °F 39.2 °F 100% 29.81 in 4.0 mi NW 12.7 mph - 0.07 in Rain , Thunderstorm Light Thunderstorms and Rain
4:37 PM 39.2 °F 32.0 °F 39.2 °F 100% 29.79 in 10.0 mi NW 11.5 mph - 0.07 in Rain , Thunderstorm Light Thunderstorms and Rain
4:44 PM 39.2 °F 32.5 °F 39.2 °F 100% 29.79 in 10.0 mi NW 10.4 mph - 0.07 in Rain Light Rain
4:53 PM 39.9 °F 32.9 °F 39.0 °F 97% 29.76 in 10.0 mi NNW 11.5 mph - 0.07 in Rain Light Rain
5:53 PM 39.9 °F 33.9 °F 37.9 °F 93% 29.85 in 7.0 mi West 9.2 mph - 0.05 in Rain Light Rain
6:39 PM 39.2 °F 31.6 °F 37.4 °F 93% 29.81 in 1.8 mi West 12.7 mph - 0.01 in   Overcast
6:49 PM 39.2 °F 30.2 °F 37.4 °F 93% 29.82 in 2.0 mi WNW 17.3 mph 24.2 mph 0.01 in   Overcast
6:53 PM 39.0 °F 30.6 °F 37.0 °F 93% 29.84 in 2.0 mi WNW 15.0 mph - 0.01 in   Overcast
7:53 PM 37.9 °F 32.7 °F 36.0 °F 93% 29.86 in 10.0 mi West 6.9 mph - 0.00 in   Overcast
8:19 PM 37.4 °F 30.3 °F 35.6 °F 93% 29.84 in 2.0 mi WNW 10.4 mph - 0.00 in Rain Light Rain
8:32 PM 37.4 °F 30.3 °F 37.4 °F 100% 29.84 in 3.0 mi WNW 10.4 mph - 0.00 in   Overcast
8:53 PM 37.9 °F 32.1 °F 37.0 °F 97% 29.87 in 4.0 mi West 8.1 mph - 0.00 in   Overcast
9:53 PM 37.9 °F 30.5 °F 36.0 °F 93% 29.88 in 10.0 mi West 11.5 mph - N/A   Overcast
10:53 PM 37.0 °F 28.1 °F 35.1 °F 93% 29.91 in 10.0 mi West 15.0 mph - N/A   Overcast
11:53 PM 35.1 °F 25.9 °F 34.0 °F 96% 29.89 in 10.0 mi West 13.8 mph 19.6 mph N/A   Overcast